| time (UTC) | temp F | wind direction | speed MPH | gust MPH | rain 1hr in | rain 24hr in | rain mn in | humidity % | barometer mb |
| 20260905195804 | 99 | 170 | 2.0 | 3.0 | 0.00 | 0.00 | 0.00 | 46 | 1015.3 |
| 20260905195259 | 99 | 127 | 0.0 | 3.0 | 0.00 | 0.00 | 0.00 | 46 | 1015.4 |
| 20260905194755 | 100 | 12 | 4.0 | 7.0 | 0.00 | 0.00 | 0.00 | 46 | 1015.5 |
| 20260905194255 | 99 | 115 | 1.0 | 3.0 | 0.00 | 0.00 | 0.00 | 47 | 1015.5 |
| 20260905193754 | 98 | 318 | 2.0 | 2.0 | 0.00 | 0.00 | 0.00 | 47 | 1015.8 |
| 20260905193249 | 98 | 97 | 1.0 | 3.0 | 0.00 | 0.00 | 0.00 | 47 | 1015.8 |
| 20260905192744 | 97 | 140 | 2.0 | 2.0 | 0.00 | 0.00 | 0.00 | 48 | 1015.8 |
| 20260905192241 | 98 | 184 | 3.0 | 5.0 | 0.00 | 0.00 | 0.00 | 47 | 1015.9 |
| 20260905191740 | 97 | 153 | 0.0 | 1.0 | 0.00 | 0.00 | 0.00 | 48 | 1016.1 |
| 20260905191239 | 96 | 162 | 3.0 | 3.0 | 0.00 | 0.00 | 0.00 | 49 | 1016.2 |
| 20260905190737 | 96 | 151 | 2.0 | 3.0 | 0.00 | 0.00 | 0.00 | 49 | 1016.2 |
| 20260905190236 | 97 | 167 | 1.0 | 3.0 | 0.00 | 0.00 | 0.00 | 48 | 1016.2 |
| 20260905185736 | 97 | 291 | 1.0 | 2.0 | 0.00 | 0.00 | 0.00 | 48 | 1016.6 |
| 20260905185231 | 96 | 149 | 2.0 | 5.0 | 0.00 | 0.00 | 0.00 | 49 | 1016.5 |
| 20260905184725 | 97 | 140 | 0.0 | 1.0 | 0.00 | 0.00 | 0.00 | 47 | 1016.6 |
| 20260905184224 | 96 | 134 | 1.0 | 3.0 | 0.00 | 0.00 | 0.00 | 47 | 1016.6 |
| 20260905183724 | 96 | 140 | 1.0 | 2.0 | 0.00 | 0.00 | 0.00 | 49 | 1016.7 |
| 20260905183219 | 96 | 338 | 1.0 | 5.0 | 0.00 | 0.00 | 0.00 | 49 | 1016.8 |
| 20260905182719 | 95 | 106 | 0.0 | 5.0 | 0.00 | 0.00 | 0.00 | 49 | 1016.7 |
| 20260905182218 | 96 | 157 | 1.0 | 5.0 | 0.00 | 0.00 | 0.00 | 48 | 1016.9 |
| 20260905181714 | 96 | 120 | 0.0 | 3.0 | 0.00 | 0.00 | 0.00 | 47 | 1017.0 |
| 20260905181213 | 96 | 163 | 1.0 | 3.0 | 0.00 | 0.00 | 0.00 | 49 | 1017.2 |
| 20260905180707 | 96 | 188 | 3.0 | 5.0 | 0.00 | 0.00 | 0.00 | 48 | 1017.2 |
| 20260905180203 | 95 | 165 | 2.0 | 3.0 | 0.00 | 0.00 | 0.00 | 51 | 1017.2 |
| 20260905175702 | 95 | 263 | 3.0 | 8.0 | 0.00 | 0.00 | 0.00 | 51 | 1017.2 |
| 20260905175157 | 94 | 126 | 2.0 | 2.0 | 0.00 | 0.00 | 0.00 | 50 | 1017.2 |
| 20260905174653 | 94 | 150 | 3.0 | 6.0 | 0.00 | 0.00 | 0.00 | 51 | 1017.2 |
| 20260905174148 | 94 | 129 | 3.0 | 5.0 | 0.00 | 0.00 | 0.00 | 52 | 1017.3 |
| 20260905173644 | 94 | 175 | 1.0 | 3.0 | 0.00 | 0.00 | 0.00 | 50 | 1017.3 |
| 20260905173140 | 94 | 275 | 2.0 | 5.0 | 0.00 | 0.00 | 0.00 | 51 | 1017.4 |
| 20260905172639 | 93 | 130 | 3.0 | 3.0 | 0.00 | 0.00 | 0.00 | 53 | 1017.4 |
| 20260905172133 | 93 | 170 | 5.0 | 6.0 | 0.00 | 0.00 | 0.00 | 53 | 1017.5 |
| 20260905171630 | 94 | 201 | 3.0 | 3.0 | 0.00 | 0.00 | 0.00 | 51 | 1017.5 |
| 20260905171125 | 93 | 169 | 1.0 | 3.0 | 0.00 | 0.00 | 0.00 | 54 | 1017.4 |
| 20260905170622 | 92 | 127 | 4.0 | 6.0 | 0.00 | 0.00 | 0.00 | 55 | 1017.5 |
| 20260905170117 | 92 | 329 | 3.0 | 6.0 | 0.00 | 0.00 | 0.00 | 56 | 1017.5 |
| 20260905165611 | 92 | 202 | 2.0 | 6.0 | 0.00 | 0.00 | 0.00 | 57 | 1017.6 |
| 20260905165107 | 92 | 149 | 2.0 | 6.0 | 0.00 | 0.00 | 0.00 | 57 | 1017.8 |
| 20260905164601 | 92 | 145 | 1.0 | 6.0 | 0.00 | 0.00 | 0.00 | 55 | 1018.0 |
| 20260905164055 | 91 | 205 | 1.0 | 3.0 | 0.00 | 0.00 | 0.00 | 57 | 1018.1 |
| 20260905163552 | 92 | 106 | 2.0 | 3.0 | 0.00 | 0.00 | 0.00 | 56 | 1018.0 |
| 20260905163048 | 91 | 136 | 0.0 | 2.0 | 0.00 | 0.00 | 0.00 | 57 | 1018.0 |
| 20260905162544 | 90 | 253 | 3.0 | 7.0 | 0.00 | 0.00 | 0.00 | 56 | 1018.2 |
| 20260905162043 | 91 | 186 | 2.0 | 6.0 | 0.00 | 0.00 | 0.00 | 57 | 1018.5 |
| 20260905161543 | 91 | 224 | 2.0 | 3.0 | 0.00 | 0.00 | 0.00 | 54 | 1018.5 |
| 20260905161041 | 92 | 139 | 1.0 | 2.0 | 0.00 | 0.00 | 0.00 | 55 | 1018.4 |
| 20260905160539 | 91 | 204 | 1.0 | 3.0 | 0.00 | 0.00 | 0.00 | 56 | 1018.3 |
| 20260905160034 | 89 | 286 | 3.0 | 3.0 | 0.00 | 0.00 | 0.00 | 60 | 1018.2 |
| 20260905155534 | 89 | 161 | 3.0 | 5.0 | 0.00 | 0.00 | 0.00 | 60 | 1018.3 |
| 20260905155033 | 90 | 187 | 1.0 | 6.0 | 0.00 | 0.00 | 0.00 | 59 | 1018.2 |
| 20260905154528 | 89 | 145 | 1.0 | 6.0 | 0.00 | 0.00 | 0.00 | 58 | 1018.2 |
| 20260905154024 | 89 | 125 | 4.0 | 5.0 | 0.00 | 0.00 | 0.00 | 57 | 1018.2 |
| 20260905153520 | 89 | 166 | 3.0 | 6.0 | 0.00 | 0.00 | 0.00 | 57 | 1018.3 |
| 20260905153019 | 89 | 123 | 3.0 | 3.0 | 0.00 | 0.00 | 0.00 | 57 | 1018.5 |
| 20260905152519 | 88 | 142 | 1.0 | 3.0 | 0.00 | 0.00 | 0.00 | 58 | 1018.6 |
| 20260905152015 | 88 | 160 | 2.0 | 5.0 | 0.00 | 0.00 | 0.00 | 59 | 1018.5 |
| 20260905151510 | 88 | 157 | 1.0 | 6.0 | 0.00 | 0.00 | 0.00 | 58 | 1018.7 |
| 20260905151005 | 87 | 73 | 1.0 | 2.0 | 0.00 | 0.00 | 0.00 | 58 | 1018.6 |
| 20260905150500 | 88 | 199 | 4.0 | 6.0 | 0.00 | 0.00 | 0.00 | 57 | 1018.5 |
| 20260905145956 | 88 | 149 | 1.0 | 3.0 | 0.00 | 0.00 | 0.00 | 59 | 1018.4 |
| 20260905145451 | 87 | 134 | 0.0 | 2.0 | 0.00 | 0.00 | 0.00 | 61 | 1018.7 |
| 20260905144950 | 87 | 159 | 1.0 | 3.0 | 0.00 | 0.00 | 0.00 | 59 | 1018.7 |
| 20260905144446 | 86 | 111 | 1.0 | 3.0 | 0.00 | 0.00 | 0.00 | 61 | 1018.8 |
| 20260905143945 | 87 | 127 | 0.0 | 2.0 | 0.00 | 0.00 | 0.00 | 61 | 1018.8 |
| 20260905143444 | 87 | 170 | 1.0 | 1.0 | 0.00 | 0.00 | 0.00 | 62 | 1018.9 |
| 20260905142939 | 85 | 128 | 0.0 | 1.0 | 0.00 | 0.00 | 0.00 | 63 | 1018.8 |
| 20260905142438 | 85 | 182 | 1.0 | 5.0 | 0.00 | 0.00 | 0.00 | 64 | 1018.9 |
| 20260905141933 | 85 | 96 | 0.0 | 3.0 | 0.00 | 0.00 | 0.00 | 68 | 1019.2 |
| 20260905141428 | 84 | 125 | 1.0 | 5.0 | 0.00 | 0.00 | 0.00 | 68 | 1019.2 |
| 20260905140924 | 84 | 112 | 1.0 | 2.0 | 0.00 | 0.00 | 0.00 | 70 | 1019.2 |
| 20260905140420 | 83 | 169 | 2.0 | 3.0 | 0.00 | 0.00 | 0.00 | 70 | 1019.3 |
| 20260905135918 | 82 | 124 | 2.0 | 3.0 | 0.00 | 0.00 | 0.00 | 72 | 1019.1 |
| 20260905135414 | 82 | 132 | 2.0 | 2.0 | 0.00 | 0.00 | 0.00 | 74 | 1019.4 |
| 20260905134909 | 81 | 159 | 1.0 | 5.0 | 0.00 | 0.00 | 0.00 | 77 | 1019.3 |
| 20260905134408 | 80 | 136 | 0.0 | 0.0 | 0.00 | 0.00 | 0.00 | 80 | 1019.5 |
| 20260905133903 | 78 | 131 | 1.0 | 2.0 | 0.00 | 0.00 | 0.00 | 83 | 1019.3 |
| 20260905133358 | 78 | 252 | 2.0 | 2.0 | 0.00 | 0.00 | 0.00 | 83 | 1019.6 |
| 20260905132857 | 78 | 158 | 0.0 | 3.0 | 0.00 | 0.00 | 0.00 | 83 | 1019.5 |
| 20260905132352 | 79 | 124 | 2.0 | 2.0 | 0.00 | 0.00 | 0.00 | 83 | 1019.8 |
| 20260905131846 | 80 | 160 | 1.0 | 2.0 | 0.00 | 0.00 | 0.00 | 82 | 1019.7 |
| 20260905131342 | 81 | 179 | 1.0 | 2.0 | 0.00 | 0.00 | 0.00 | 80 | 1020.0 |
| 20260905130837 | 80 | 178 | 2.0 | 5.0 | 0.00 | 0.00 | 0.00 | 79 | 1020.1 |
| 20260905130336 | 79 | 205 | 2.0 | 2.0 | 0.00 | 0.00 | 0.00 | 81 | 1020.0 |
| 20260905125832 | 79 | 137 | 1.0 | 5.0 | 0.00 | 0.00 | 0.00 | 82 | 1019.7 |
| 20260905125326 | 79 | 231 | 2.0 | 3.0 | 0.00 | 0.00 | 0.00 | 84 | 1019.5 |
| 20260905124823 | 78 | 151 | 2.0 | 5.0 | 0.00 | 0.00 | 0.00 | 85 | 1019.4 |
| 20260905124319 | 77 | 126 | 0.0 | 1.0 | 0.00 | 0.00 | 0.00 | 92 | 1019.7 |
| 20260905123813 | 76 | 127 | 1.0 | 1.0 | 0.00 | 0.00 | 0.00 | 96 | 1019.7 |
| 20260905123310 | 76 | 120 | 0.0 | 2.0 | 0.00 | 0.00 | 0.00 | 97 | 1019.9 |
| 20260905122809 | 75 | 109 | 1.0 | 2.0 | 0.00 | 0.00 | 0.00 | 99 | 1019.5 |
| 20260905122309 | 75 | 66 | 0.0 | 0.0 | 0.00 | 0.00 | 0.00 | 99 | 1018.6 |
| 20260905121805 | 75 | 123 | 0.0 | 0.0 | 0.00 | 0.00 | 0.00 | 99 | 1018.5 |
| 20260905121301 | 75 | 120 | 0.0 | 0.0 | 0.00 | 0.00 | 0.00 | 99 | 1018.1 |
| 20260905120759 | 75 | 126 | 0.0 | 0.0 | 0.00 | 0.00 | 0.00 | 99 | 1018.1 |
| 20260905120300 | 75 | 124 | 0.0 | 0.0 | 0.00 | 0.00 | 0.00 | 99 | 1017.9 |
| 20260905115754 | 75 | 149 | 0.0 | 0.0 | 0.00 | 0.00 | 0.00 | 99 | 1018.0 |
| 20260905115249 | 75 | 115 | 0.0 | 0.0 | 0.00 | 0.00 | 0.00 | 99 | 1018.3 |
| 20260905114748 | 74 | 127 | 0.0 | 0.0 | 0.00 | 0.00 | 0.00 | 99 | 1018.3 |
| 20260905114247 | 74 | 116 | 0.0 | 0.0 | 0.00 | 0.00 | 0.00 | 99 | 1018.3 |
| 20260905113746 | 74 | 101 | 0.0 | 0.0 | 0.00 | 0.00 | 0.00 | 98 | 1018.1 |
| 20260905113243 | 75 | 120 | 0.0 | 0.0 | 0.00 | 0.00 | 0.00 | 98 | 1018.1 |
| 20260905112737 | 75 | 127 | 0.0 | 0.0 | 0.00 | 0.00 | 0.00 | 98 | 1018.0 |
| 20260905112232 | 75 | 120 | 0.0 | 0.0 | 0.00 | 0.00 | 0.00 | 98 | 1017.7 |
| 20260905111727 | 75 | 121 | 0.0 | 1.0 | 0.00 | 0.00 | 0.00 | 98 | 1017.7 |
| 20260905111221 | 75 | 121 | 0.0 | 2.0 | 0.00 | 0.00 | 0.00 | 97 | 1018.2 |
| 20260905110720 | 75 | 126 | 0.0 | 0.0 | 0.00 | 0.00 | 0.00 | 97 | 1017.9 |
| 20260905110215 | 75 | 109 | 0.0 | 0.0 | 0.00 | 0.00 | 0.00 | 97 | 1017.6 |
| 20260905105710 | 75 | 112 | 0.0 | 0.0 | 0.00 | 0.00 | 0.00 | 96 | 1017.6 |
| 20260905105209 | 75 | 115 | 0.0 | 0.0 | 0.00 | 0.00 | 0.00 | 96 | 1017.5 |
| 20260905104704 | 75 | 118 | 0.0 | 0.0 | 0.00 | 0.00 | 0.00 | 96 | 1017.3 |
| 20260905104200 | 75 | 123 | 0.0 | 0.0 | 0.00 | 0.00 | 0.00 | 96 | 1017.1 |
| 20260905103655 | 75 | 131 | 0.0 | 0.0 | 0.00 | 0.00 | 0.00 | 96 | 1017.1 |
| 20260905103151 | 75 | 128 | 0.0 | 2.0 | 0.00 | 0.00 | 0.00 | 96 | 1017.3 |
| 20260905102646 | 74 | 132 | 0.0 | 0.0 | 0.00 | 0.00 | 0.00 | 96 | 1017.2 |
| 20260905102143 | 74 | 117 | 0.0 | 0.0 | 0.00 | 0.00 | 0.00 | 95 | 1017.0 |
| 20260905101641 | 74 | 107 | 0.0 | 0.0 | 0.00 | 0.00 | 0.00 | 95 | 1016.9 |
| 20260905101140 | 74 | 124 | 0.0 | 0.0 | 0.00 | 0.00 | 0.00 | 94 | 1017.1 |
| 20260905100636 | 74 | 122 | 0.0 | 0.0 | 0.00 | 0.00 | 0.00 | 94 | 1016.9 |
| 20260905100131 | 75 | 124 | 0.0 | 0.0 | 0.00 | 0.00 | 0.00 | 94 | 1016.9 |
| 20260905095624 | 75 | 121 | 0.0 | 0.0 | 0.00 | 0.00 | 0.00 | 93 | 1017.1 |
| 20260905095120 | 75 | 117 | 0.0 | 0.0 | 0.00 | 0.00 | 0.00 | 93 | 1016.9 |
| 20260905094615 | 75 | 118 | 0.0 | 0.0 | 0.00 | 0.00 | 0.00 | 92 | 1016.8 |
| 20260905094114 | 75 | 119 | 0.0 | 0.0 | 0.00 | 0.00 | 0.00 | 92 | 1016.9 |
| 20260905093614 | 76 | 118 | 0.0 | 0.0 | 0.00 | 0.00 | 0.00 | 92 | 1016.8 |
| 20260905093111 | 76 | 118 | 0.0 | 0.0 | 0.00 | 0.00 | 0.00 | 91 | 1016.7 |
| 20260905092610 | 76 | 118 | 0.0 | 0.0 | 0.00 | 0.00 | 0.00 | 91 | 1016.6 |
| 20260905092107 | 77 | 118 | 0.0 | 0.0 | 0.00 | 0.00 | 0.00 | 89 | 1016.6 |
| 20260905091606 | 77 | 118 | 0.0 | 0.0 | 0.00 | 0.00 | 0.00 | 88 | 1016.6 |
| 20260905091101 | 77 | 118 | 0.0 | 0.0 | 0.00 | 0.00 | 0.00 | 87 | 1016.5 |
| 20260905090601 | 77 | 118 | 0.0 | 0.0 | 0.00 | 0.00 | 0.00 | 87 | 1016.5 |
| 20260905090056 | 78 | 118 | 0.0 | 0.0 | 0.00 | 0.00 | 0.00 | 85 | 1016.5 |
| 20260905085554 | 78 | 118 | 0.0 | 0.0 | 0.00 | 0.00 | 0.00 | 84 | 1016.2 |
| 20260905085050 | 79 | 119 | 0.0 | 0.0 | 0.00 | 0.00 | 0.00 | 84 | 1016.4 |
| 20260905084549 | 79 | 119 | 0.0 | 0.0 | 0.00 | 0.00 | 0.00 | 83 | 1016.5 |
| 20260905084045 | 80 | 115 | 0.0 | 0.0 | 0.00 | 0.00 | 0.00 | 82 | 1016.5 |
| 20260905083539 | 80 | 136 | 0.0 | 1.0 | 0.00 | 0.00 | 0.00 | 79 | 1016.5 |
| 20260905083036 | 80 | 136 | 0.0 | 0.0 | 0.00 | 0.00 | 0.00 | 80 | 1016.6 |
| 20260905082531 | 80 | 118 | 0.0 | 2.0 | 0.00 | 0.00 | 0.00 | 81 | 1016.7 |
| 20260905082027 | 81 | 140 | 0.0 | 3.0 | 0.00 | 0.00 | 0.00 | 81 | 1016.4 |
| 20260905081526 | 81 | 75 | 1.0 | 6.0 | 0.00 | 0.00 | 0.00 | 83 | 1016.7 |
| 20260905081021 | 80 | 26 | 3.0 | 6.0 | 0.00 | 0.00 | 0.00 | 84 | 1016.6 |
| 20260905080520 | 79 | 37 | 3.0 | 8.0 | 0.00 | 0.00 | 0.00 | 88 | 1017.0 |
| 20260905080016 | 78 | 30 | 2.0 | 2.0 | 0.00 | 0.00 | 0.00 | 94 | 1016.6 |
| 20260905075509 | 79 | 123 | 0.0 | 0.0 | 0.00 | 0.00 | 0.00 | 93 | 1016.2 |
| 20260905075009 | 79 | 120 | 0.0 | 0.0 | 0.00 | 0.00 | 0.00 | 92 | 1016.4 |
| 20260905074504 | 79 | 121 | 0.0 | 0.0 | 0.00 | 0.00 | 0.00 | 92 | 1016.4 |
| 20260905073959 | 79 | 128 | 0.0 | 0.0 | 0.00 | 0.00 | 0.00 | 92 | 1016.4 |
| 20260905073454 | 79 | 121 | 0.0 | 0.0 | 0.00 | 0.00 | 0.00 | 92 | 1016.5 |
| 20260905072949 | 78 | 163 | 1.0 | 2.0 | 0.00 | 0.00 | 0.00 | 95 | 1016.7 |
| 20260905072444 | 77 | 152 | 1.0 | 1.0 | 0.00 | 0.00 | 0.00 | 97 | 1017.0 |
| 20260905071940 | 77 | 124 | 0.0 | 1.0 | 0.00 | 0.00 | 0.00 | 99 | 1016.7 |
| 20260905071437 | 76 | 130 | 0.0 | 1.0 | 0.00 | 0.00 | 0.00 | 99 | 1017.2 |
| 20260905070936 | 76 | 94 | 0.0 | 1.0 | 0.00 | 0.00 | 0.00 | 99 | 1017.0 |
| 20260905070432 | 75 | 120 | 0.0 | 0.0 | 0.00 | 0.00 | 0.00 | 99 | 1016.8 |
| 20260905065932 | 75 | 120 | 0.0 | 0.0 | 0.00 | 0.00 | 0.00 | 99 | 1016.9 |
| 20260905065430 | 75 | 120 | 0.0 | 0.0 | 0.00 | 0.00 | 0.00 | 99 | 1017.0 |
| 20260905064926 | 75 | 120 | 0.0 | 0.0 | 0.00 | 0.00 | 0.00 | 99 | 1016.9 |
| 20260905064420 | 75 | 120 | 0.0 | 0.0 | 0.00 | 0.00 | 0.00 | 99 | 1017.1 |
| 20260905063915 | 75 | 120 | 0.0 | 0.0 | 0.00 | 0.00 | 0.00 | 99 | 1017.0 |
| 20260905063410 | 75 | 120 | 0.0 | 0.0 | 0.00 | 0.00 | 0.00 | 99 | 1017.3 |
| 20260905062906 | 75 | 120 | 0.0 | 0.0 | 0.00 | 0.00 | 0.00 | 99 | 1017.3 |
| 20260905062400 | 75 | 120 | 0.0 | 0.0 | 0.00 | 0.00 | 0.00 | 99 | 1017.3 |
| 20260905061855 | 75 | 120 | 0.0 | 0.0 | 0.00 | 0.00 | 0.00 | 99 | 1017.5 |
| 20260905061354 | 75 | 120 | 0.0 | 0.0 | 0.00 | 0.00 | 0.00 | 99 | 1017.5 |
| 20260905060849 | 76 | 120 | 0.0 | 0.0 | 0.00 | 0.00 | 0.00 | 99 | 1017.6 |
| 20260905060346 | 75 | 120 | 0.0 | 0.0 | 0.00 | 0.00 | 0.00 | 99 | 1017.5 |
| 20260905055844 | 76 | 120 | 0.0 | 0.0 | 0.00 | 0.00 | 0.00 | 99 | 1017.6 |
| 20260905055340 | 76 | 120 | 0.0 | 0.0 | 0.00 | 0.00 | 0.00 | 99 | 1017.6 |
| 20260905054839 | 76 | 120 | 0.0 | 0.0 | 0.00 | 0.00 | 0.00 | 99 | 1017.5 |
| 20260905054336 | 76 | 120 | 0.0 | 0.0 | 0.00 | 0.00 | 0.00 | 99 | 1017.7 |
| 20260905053835 | 76 | 120 | 0.0 | 0.0 | 0.00 | 0.00 | 0.00 | 98 | 1017.7 |
| 20260905053336 | 76 | 120 | 0.0 | 0.0 | 0.00 | 0.00 | 0.00 | 98 | 1017.7 |
| 20260905052831 | 76 | 120 | 0.0 | 0.0 | 0.00 | 0.00 | 0.00 | 98 | 1017.5 |
| 20260905052331 | 76 | 120 | 0.0 | 0.0 | 0.00 | 0.00 | 0.00 | 98 | 1017.6 |
| 20260905051830 | 76 | 120 | 0.0 | 0.0 | 0.00 | 0.00 | 0.00 | 98 | 1017.7 |
| 20260905051326 | 76 | 117 | 0.0 | 0.0 | 0.00 | 0.00 | 0.00 | 98 | 1017.9 |
| 20260905050823 | 76 | 117 | 0.0 | 0.0 | 0.00 | 0.00 | 0.00 | 98 | 1017.9 |
| 20260905050313 | 76 | 117 | 0.0 | 0.0 | 0.00 | 0.00 | 0.00 | 98 | 1017.7 |
| 20260905045808 | 77 | 117 | 0.0 | 0.0 | 0.00 | 0.00 | 0.00 | 97 | 1017.5 |
| 20260905045305 | 77 | 117 | 0.0 | 0.0 | 0.00 | 0.00 | 0.00 | 97 | 1017.7 |
| 20260905044759 | 77 | 121 | 0.0 | 0.0 | 0.00 | 0.00 | 0.00 | 97 | 1017.7 |
| 20260905044254 | 76 | 122 | 0.0 | 0.0 | 0.00 | 0.00 | 0.00 | 97 | 1017.7 |
| 20260905043752 | 77 | 114 | 0.0 | 0.0 | 0.00 | 0.00 | 0.00 | 97 | 1017.9 |
| 20260905043247 | 77 | 118 | 0.0 | 0.0 | 0.00 | 0.00 | 0.00 | 97 | 1017.7 |
| 20260905042742 | 77 | 118 | 0.0 | 0.0 | 0.00 | 0.00 | 0.00 | 96 | 1017.8 |
| 20260905042241 | 77 | 118 | 0.0 | 0.0 | 0.00 | 0.00 | 0.00 | 96 | 1017.6 |
| 20260905041737 | 77 | 118 | 0.0 | 0.0 | 0.00 | 0.00 | 0.00 | 96 | 1017.7 |
| 20260905041232 | 77 | 118 | 0.0 | 0.0 | 0.00 | 0.00 | 0.00 | 96 | 1017.7 |
| 20260905040727 | 77 | 113 | 0.0 | 0.0 | 0.00 | 0.00 | 0.00 | 96 | 1017.7 |
| 20260905040226 | 77 | 106 | 0.0 | 1.0 | 0.00 | 0.00 | 0.00 | 95 | 1017.7 |
| 20260905035726 | 77 | 119 | 0.0 | 0.0 | 0.00 | 0.00 | 0.00 | 95 | 1017.8 |
| 20260905035223 | 77 | 119 | 0.0 | 0.0 | 0.00 | 0.00 | 0.00 | 95 | 1017.8 |
| 20260905034719 | 77 | 119 | 0.0 | 0.0 | 0.00 | 0.00 | 0.00 | 95 | 1017.7 |
| 20260905034218 | 77 | 119 | 0.0 | 0.0 | 0.00 | 0.00 | 0.00 | 94 | 1017.7 |
| 20260905033717 | 77 | 119 | 0.0 | 0.0 | 0.00 | 0.00 | 0.00 | 94 | 1017.7 |
| 20260905033213 | 77 | 119 | 0.0 | 0.0 | 0.00 | 0.00 | 0.00 | 94 | 1017.5 |
| 20260905032712 | 77 | 119 | 0.0 | 0.0 | 0.00 | 0.00 | 0.00 | 94 | 1017.8 |
| 20260905032207 | 78 | 119 | 0.0 | 0.0 | 0.00 | 0.00 | 0.00 | 93 | 1017.8 |
| 20260905031703 | 78 | 119 | 0.0 | 0.0 | 0.00 | 0.00 | 0.00 | 93 | 1017.6 |
| 20260905031158 | 78 | 120 | 0.0 | 0.0 | 0.00 | 0.00 | 0.00 | 93 | 1017.8 |
| 20260905030653 | 78 | 119 | 0.0 | 0.0 | 0.00 | 0.00 | 0.00 | 93 | 1017.7 |
| 20260905030149 | 78 | 119 | 0.0 | 0.0 | 0.00 | 0.00 | 0.00 | 93 | 1017.6 |
| 20260905025643 | 78 | 119 | 0.0 | 0.0 | 0.00 | 0.00 | 0.00 | 92 | 1017.6 |
| 20260905025139 | 78 | 119 | 0.0 | 0.0 | 0.00 | 0.00 | 0.00 | 92 | 1017.9 |
| 20260905024635 | 78 | 119 | 0.0 | 0.0 | 0.00 | 0.00 | 0.00 | 92 | 1017.8 |
| 20260905024130 | 79 | 119 | 0.0 | 0.0 | 0.00 | 0.00 | 0.00 | 91 | 1017.8 |
| 20260905023626 | 79 | 118 | 0.0 | 0.0 | 0.00 | 0.00 | 0.00 | 91 | 1017.8 |
| 20260905023125 | 79 | 122 | 0.0 | 0.0 | 0.00 | 0.00 | 0.00 | 91 | 1017.5 |
| 20260905022624 | 79 | 122 | 0.0 | 0.0 | 0.00 | 0.00 | 0.00 | 90 | 1017.6 |
| 20260905022119 | 79 | 122 | 0.0 | 0.0 | 0.00 | 0.00 | 0.00 | 89 | 1017.7 |
| 20260905021614 | 79 | 122 | 0.0 | 0.0 | 0.00 | 0.00 | 0.00 | 89 | 1017.7 |
| 20260905021110 | 79 | 122 | 0.0 | 0.0 | 0.00 | 0.00 | 0.00 | 89 | 1017.7 |
| 20260905020609 | 80 | 122 | 0.0 | 0.0 | 0.00 | 0.00 | 0.00 | 88 | 1017.5 |
| 20260905020104 | 80 | 121 | 0.0 | 0.0 | 0.00 | 0.00 | 0.00 | 88 | 1017.6 |
| 20260905015603 | 80 | 122 | 0.0 | 0.0 | 0.00 | 0.00 | 0.00 | 88 | 1017.4 |
| 20260905015057 | 80 | 122 | 0.0 | 0.0 | 0.00 | 0.00 | 0.00 | 87 | 1017.6 |
| 20260905014551 | 80 | 122 | 0.0 | 0.0 | 0.00 | 0.00 | 0.00 | 86 | 1017.6 |
| 20260905014047 | 80 | 122 | 0.0 | 0.0 | 0.00 | 0.00 | 0.00 | 86 | 1017.5 |
| 20260905013544 | 81 | 122 | 0.0 | 0.0 | 0.00 | 0.00 | 0.00 | 86 | 1017.5 |
| 20260905013039 | 81 | 122 | 0.0 | 0.0 | 0.00 | 0.00 | 0.00 | 85 | 1017.3 |
| 20260905012538 | 81 | 122 | 0.0 | 0.0 | 0.00 | 0.00 | 0.00 | 84 | 1017.2 |
| 20260905012036 | 81 | 122 | 0.0 | 0.0 | 0.00 | 0.00 | 0.00 | 84 | 1017.2 |
| 20260905011531 | 82 | 122 | 0.0 | 0.0 | 0.00 | 0.00 | 0.00 | 84 | 1017.3 |
| 20260905011026 | 82 | 122 | 0.0 | 0.0 | 0.00 | 0.00 | 0.00 | 84 | 1017.3 |
| 20260905010521 | 82 | 122 | 0.0 | 0.0 | 0.00 | 0.00 | 0.00 | 84 | 1016.9 |
| 20260905010018 | 82 | 122 | 0.0 | 0.0 | 0.00 | 0.00 | 0.00 | 83 | 1017.1 |
| 20260905005513 | 83 | 123 | 0.0 | 0.0 | 0.00 | 0.00 | 0.00 | 82 | 1017.0 |
| 20260905005009 | 83 | 123 | 0.0 | 0.0 | 0.00 | 0.00 | 0.00 | 81 | 1016.9 |
| 20260905004508 | 84 | 128 | 0.0 | 0.0 | 0.00 | 0.00 | 0.00 | 80 | 1016.9 |
| 20260905004003 | 84 | 128 | 0.0 | 0.0 | 0.00 | 0.00 | 0.00 | 80 | 1016.9 |
| 20260905003459 | 84 | 128 | 0.0 | 0.0 | 0.00 | 0.00 | 0.00 | 78 | 1017.0 |
| 20260905002954 | 85 | 128 | 0.0 | 0.0 | 0.00 | 0.00 | 0.00 | 77 | 1016.8 |
| 20260905002450 | 86 | 128 | 0.0 | 0.0 | 0.00 | 0.00 | 0.00 | 75 | 1016.7 |
| 20260905001943 | 86 | 128 | 0.0 | 0.0 | 0.00 | 0.00 | 0.00 | 74 | 1016.7 |
| 20260905001438 | 87 | 128 | 0.0 | 0.0 | 0.00 | 0.00 | 0.00 | 72 | 1016.6 |
| 20260905000933 | 88 | 128 | 0.0 | 0.0 | 0.00 | 0.00 | 0.00 | 71 | 1016.7 |
| 20260905000431 | 88 | 128 | 0.0 | 0.0 | 0.00 | 0.00 | 0.00 | 68 | 1016.7 |
| 20260904235924 | 89 | 128 | 0.0 | 0.0 | 0.00 | 0.00 | 0.00 | 67 | 1016.7 |
| 20260904235419 | 89 | 122 | 0.0 | 0.0 | 0.00 | 0.00 | 0.00 | 65 | 1016.6 |
| 20260904234913 | 91 | 106 | 0.0 | 1.0 | 0.00 | 0.00 | 0.00 | 64 | 1016.6 |
| 20260904234408 | 91 | 118 | 0.0 | 0.0 | 0.00 | 0.00 | 0.00 | 62 | 1016.7 |
| 20260904233904 | 92 | 129 | 0.0 | 0.0 | 0.00 | 0.00 | 0.00 | 61 | 1016.6 |
| 20260904233359 | 94 | 108 | 0.0 | 0.0 | 0.00 | 0.00 | 0.00 | 59 | 1016.7 |
| 20260904232856 | 95 | 112 | 0.0 | 1.0 | 0.00 | 0.00 | 0.00 | 56 | 1016.6 |
| 20260904232352 | 97 | 126 | 0.0 | 0.0 | 0.00 | 0.00 | 0.00 | 52 | 1016.5 |
| 20260904231848 | 98 | 109 | 0.0 | 1.0 | 0.00 | 0.00 | 0.00 | 50 | 1016.4 |
| 20260904231343 | 98 | 136 | 0.0 | 1.0 | 0.00 | 0.00 | 0.00 | 51 | 1016.8 |
| 20260904230838 | 98 | 117 | 0.0 | 2.0 | 0.00 | 0.00 | 0.00 | 50 | 1016.7 |
| 20260904230336 | 99 | 34 | 2.0 | 2.0 | 0.00 | 0.00 | 0.00 | 50 | 1016.8 |
| 20260904225831 | 99 | 125 | 0.0 | 2.0 | 0.00 | 0.00 | 0.00 | 48 | 1016.9 |
| 20260904225329 | 100 | 156 | 0.0 | 2.0 | 0.00 | 0.00 | 0.00 | 48 | 1017.0 |
| 20260904224824 | 100 | 193 | 1.0 | 1.0 | 0.00 | 0.00 | 0.00 | 45 | 1016.8 |
| 20260904224320 | 100 | 148 | 0.0 | 1.0 | 0.00 | 0.00 | 0.00 | 44 | 1016.9 |
| 20260904223818 | 100 | 156 | 0.0 | 1.0 | 0.00 | 0.00 | 0.00 | 46 | 1016.9 |
| 20260904223313 | 100 | 68 | 1.0 | 2.0 | 0.00 | 0.00 | 0.00 | 44 | 1017.1 |
| 20260904222810 | 101 | 118 | 1.0 | 3.0 | 0.00 | 0.00 | 0.00 | 44 | 1017.0 |
| 20260904222306 | 100 | 107 | 1.0 | 1.0 | 0.00 | 0.00 | 0.00 | 44 | 1017.0 |
| 20260904221759 | 100 | 26 | 1.0 | 3.0 | 0.00 | 0.00 | 0.00 | 45 | 1017.0 |
| 20260904221259 | 101 | 125 | 2.0 | 2.0 | 0.00 | 0.00 | 0.00 | 43 | 1017.2 |
| 20260904220754 | 101 | 150 | 0.0 | 5.0 | 0.00 | 0.00 | 0.00 | 45 | 1017.1 |
| 20260904220253 | 102 | 348 | 2.0 | 2.0 | 0.00 | 0.00 | 0.00 | 45 | 1017.0 |
| 20260904215749 | 102 | 171 | 2.0 | 3.0 | 0.00 | 0.00 | 0.00 | 45 | 1017.0 |
| 20260904215244 | 101 | 33 | 2.0 | 3.0 | 0.00 | 0.00 | 0.00 | 44 | 1017.1 |
| 20260904214739 | 102 | 92 | 1.0 | 2.0 | 0.00 | 0.00 | 0.00 | 43 | 1017.0 |
| 20260904214235 | 102 | 127 | 1.0 | 3.0 | 0.00 | 0.00 | 0.00 | 42 | 1017.0 |
| 20260904213733 | 102 | 79 | 1.0 | 2.0 | 0.00 | 0.00 | 0.00 | 42 | 1017.2 |
| 20260904213229 | 101 | 140 | 1.0 | 2.0 | 0.00 | 0.00 | 0.00 | 45 | 1017.3 |
| 20260904212725 | 101 | 219 | 3.0 | 5.0 | 0.00 | 0.00 | 0.00 | 45 | 1017.2 |
| 20260904212219 | 102 | 121 | 1.0 | 3.0 | 0.00 | 0.00 | 0.00 | 44 | 1017.3 |
| 20260904211719 | 102 | 30 | 1.0 | 3.0 | 0.00 | 0.00 | 0.00 | 42 | 1017.3 |
| 20260904211214 | 102 | 212 | 1.0 | 2.0 | 0.00 | 0.00 | 0.00 | 43 | 1017.4 |
| 20260904210709 | 102 | 113 | 1.0 | 3.0 | 0.00 | 0.00 | 0.00 | 44 | 1017.3 |
| 20260904210204 | 102 | 39 | 3.0 | 5.0 | 0.00 | 0.00 | 0.00 | 43 | 1017.3 |
| 20260904205700 | 103 | 238 | 1.0 | 2.0 | 0.00 | 0.00 | 0.00 | 42 | 1017.3 |
| 20260904205156 | 102 | 151 | 1.0 | 3.0 | 0.00 | 0.00 | 0.00 | 43 | 1017.2 |
| 20260904204652 | 101 | 128 | 1.0 | 3.0 | 0.00 | 0.00 | 0.00 | 44 | 1017.3 |
| 20260904204147 | 101 | 238 | 2.0 | 5.0 | 0.00 | 0.00 | 0.00 | 44 | 1017.5 |
| 20260904203643 | 102 | 135 | 2.0 | 2.0 | 0.00 | 0.00 | 0.00 | 43 | 1017.5 |
| 20260904203140 | 101 | 240 | 3.0 | 5.0 | 0.00 | 0.00 | 0.00 | 44 | 1017.7 |
| 20260904202635 | 100 | 162 | 1.0 | 5.0 | 0.00 | 0.00 | 0.00 | 45 | 1017.6 |
| 20260904202131 | 100 | 113 | 1.0 | 5.0 | 0.00 | 0.00 | 0.00 | 44 | 1017.8 |
| 20260904201626 | 100 | 123 | 2.0 | 5.0 | 0.00 | 0.00 | 0.00 | 46 | 1018.0 |
| 20260904201121 | 100 | 28 | 1.0 | 3.0 | 0.00 | 0.00 | 0.00 | 45 | 1017.9 |
| 20260904200621 | 100 | 148 | 1.0 | 5.0 | 0.00 | 0.00 | 0.00 | 45 | 1017.8 |
| 20260904200116 | 100 | 315 | 3.0 | 6.0 | 0.00 | 0.00 | 0.00 | 46 | 1017.8 |